{"data":{"norad_id":59869,"intl_designator":"2024-098M","name":"STARLINK-31760","alt_names":[],"object_type":"PAYLOAD","status":"ACTIVE","operator":null,"country":"US","launch_date":"2024-05-24","launch_site_code":"AFETR","launch_vehicle":null,"mission":null,"orbit_class":"UNKNOWN","rcs_meters":null,"size_class":null,"mass_kg":null,"dimensions":null,"purposes":["comms"],"wikipedia_slug":null,"has_3d_model":false,"image_url":null,"decayed_at":null,"tle_current":{"epoch":"2026-09-21T15:46:38.307648Z","epoch_age_seconds":74491,"freshness":"FRESH","line1":"1 59869U 24098M   26264.65738782  .00001830  00000+0  76036-4 0  9993","line2":"2 59869  42.9972 251.5473 0001165 284.2118  75.8604 15.27570795131810","mean_motion":15.27570795,"eccentricity":0.0001165,"inclination_deg":42.9972,"raan_deg":251.5473,"arg_perigee_deg":284.2118,"mean_anomaly_deg":75.8604,"bstar":7.6036e-5,"rev_number":13181,"period_min":94.267316756341,"perigee_km":482.27732786824,"apogee_km":483.87599065085,"semimajor_km":6861.2136592595,"source":"CELESTRAK","updated_at":"2026-09-22T09:00:49.102547Z"}}}